EW7868 Weather Reports


Display with metric or nautical units.
time (UTC)temp
F
wind
direction
speed
MPH
gust
MPH
rain 1hr
in
rain 24hr
in
rain mn
in
humidity
%
barometer
mb
20260901114929 74 198 3.0 4.0 0.00 0.02 0.02 94 1013.5
20260901114424 74 206 0.0 4.0 0.00 0.02 0.02 94 1013.5
20260901113922 74 204 2.0 3.0 0.00 0.02 0.02 94 1013.5
20260901113421 74 200 1.0 3.0 0.00 0.02 0.02 93 1013.3
20260901112917 74 180 0.0 4.0 0.00 0.02 0.02 93 1013.6
20260901112411 75 206 2.0 3.0 0.00 0.02 0.02 93 1013.3
20260901111906 75 210 2.0 4.0 0.00 0.02 0.02 92 1013.4
20260901111404 75 208 2.0 3.0 0.00 0.02 0.02 93 1013.2
20260901110903 75 197 2.0 4.0 0.00 0.02 0.02 93 1013.1
20260901110359 75 203 2.0 3.0 0.00 0.02 0.02 93 1013.2
20260901105855 75 199 0.0 3.0 0.00 0.02 0.02 93 1013.0
20260901105350 75 202 2.0 3.0 0.00 0.02 0.02 93 1012.9
20260901104846 75 255 1.0 3.0 0.00 0.02 0.02 93 1012.9
20260901104341 75 203 2.0 3.0 0.00 0.02 0.02 93 1013.0
20260901103836 75 192 2.0 3.0 0.00 0.02 0.02 94 1012.7
20260901103330 74 206 2.0 3.0 0.00 0.02 0.02 94 1013.0
20260901102826 75 180 1.0 2.0 0.00 0.02 0.02 95 1013.1
20260901102320 75 186 1.0 2.0 0.00 0.02 0.02 94 1013.1
20260901101816 75 209 0.0 2.0 0.00 0.02 0.02 93 1013.2
20260901101315 75 190 0.0 2.0 0.00 0.02 0.02 93 1013.0
20260901100815 75 203 0.0 2.0 0.02 0.02 0.02 93 1013.1
20260901100310 75 98 0.0 0.0 0.02 0.02 0.02 92 1013.1
20260901095808 75 209 1.0 2.0 0.00 0.02 0.02 92 1013.1
20260901095306 75 192 1.0 3.0 0.00 0.02 0.02 92 1012.9
20260901094800 75 200 1.0 3.0 0.00 0.02 0.02 92 1012.6
20260901094255 75 206 2.0 3.0 0.00 0.02 0.02 92 1012.9
20260901093750 75 194 1.0 2.0 0.00 0.02 0.02 92 1012.7
20260901093249 75 195 2.0 3.0 0.00 0.02 0.02 92 1012.8
20260901092745 75 198 1.0 2.0 0.00 0.02 0.02 92 1012.7
20260901092240 75 203 0.0 3.0 0.00 0.02 0.02 93 1012.8
20260901091731 75 212 3.0 5.0 0.00 0.02 0.02 93 1012.4
20260901091226 75 208 2.0 3.0 0.00 0.02 0.02 93 1012.7
20260901090721 75 200 1.0 4.0 0.00 0.02 0.02 93 1012.7
20260901090216 75 201 0.0 3.0 0.00 0.02 0.02 93 1012.5
20260901085712 75 210 2.0 3.0 0.00 0.02 0.02 93 1012.4
20260901085207 75 192 0.0 3.0 0.00 0.02 0.02 93 1012.8
20260901084704 75 209 1.0 4.0 0.00 0.02 0.02 93 1012.6
20260901084200 75 202 2.0 4.0 0.00 0.02 0.02 93 1012.8
20260901083659 75 202 2.0 5.0 0.00 0.02 0.02 93 1012.7
20260901083158 75 213 2.0 6.0 0.02 0.02 0.02 93 1012.9
20260901082652 75 206 3.0 7.0 0.09 0.02 0.02 93 1012.6
20260901082148 76 204 0.0 5.0 0.05 0.01 0.01 91 1012.6
20260901081643 77 187 0.0 4.0 0.00 0.00 0.00 88 1012.8
20260901081142 77 200 5.0 5.0 0.00 0.00 0.00 87 1012.7
20260901080637 77 199 2.0 4.0 0.00 0.00 0.00 87 1012.8
20260901080136 77 187 0.0 3.0 0.00 0.00 0.00 87 1012.7
20260901075631 77 201 3.0 3.0 0.00 0.00 0.00 87 1012.5
20260901075131 77 194 3.0 4.0 0.00 0.00 0.00 87 1012.6
20260901074630 77 186 0.0 3.0 0.00 0.00 0.00 87 1012.6
20260901074126 77 202 3.0 5.0 0.00 0.00 0.00 87 1012.6
20260901073622 77 189 2.0 4.0 0.00 0.00 0.00 87 1012.6
20260901073117 77 192 0.0 2.0 0.00 0.00 0.00 87 1012.8
20260901072613 77 194 0.0 2.0 0.00 0.00 0.00 87 1012.6
20260901072107 76 194 0.0 3.0 0.00 0.00 0.00 88 1012.6
20260901071602 76 203 0.0 2.0 0.00 0.00 0.00 88 1012.6
20260901071101 77 195 0.0 2.0 0.00 0.00 0.00 88 1012.7
20260901070555 77 189 4.0 4.0 0.00 0.00 0.00 88 1012.5
20260901070051 76 195 1.0 3.0 0.00 0.00 0.00 88 1012.5
20260901065545 77 189 2.0 2.0 0.00 0.00 0.00 88 1012.5
20260901065039 77 192 0.0 3.0 0.00 0.00 0.00 88 1012.5
20260901064537 76 194 2.0 4.0 0.00 0.00 0.00 88 1012.4
20260901064033 77 194 1.0 3.0 0.00 0.00 0.00 88 1012.2
20260901063529 77 204 2.0 3.0 0.00 0.00 0.00 88 1012.3
20260901063025 77 206 0.0 4.0 0.00 0.00 0.00 88 1012.5
20260901062520 77 203 2.0 4.0 0.00 0.00 0.00 88 1012.4
20260901062016 77 180 2.0 4.0 0.00 0.00 0.00 88 1012.3
20260901061513 77 190 3.0 4.0 0.00 0.00 0.00 88 1012.3
20260901061007 77 204 2.0 5.0 0.00 0.00 0.00 88 1012.2
20260901060501 77 201 3.0 4.0 0.00 0.00 0.00 88 1012.3
20260901055955 77 188 4.0 5.0 0.00 0.00 0.00 88 1012.4
20260901055452 77 203 1.0 4.0 0.00 0.00 0.00 87 1012.5
20260901054949 78 198 0.0 5.0 0.00 0.00 0.00 87 1012.2
20260901054446 78 194 2.0 5.0 0.00 0.00 0.00 87 1012.6
20260901053941 78 205 3.0 4.0 0.00 0.00 0.00 87 1012.6
20260901053436 78 197 0.0 4.0 0.00 0.00 0.00 86 1012.5
20260901052931 78 209 2.0 6.0 0.00 0.00 0.00 86 1012.3
20260901052426 78 195 3.0 5.0 0.00 0.00 0.00 86 1012.5
20260901051926 78 198 0.0 4.0 0.00 0.00 0.00 86 1012.4
20260901051421 78 233 2.0 5.0 0.00 0.00 0.00 86 1012.5
20260901050915 78 194 5.0 5.0 0.00 0.00 0.00 86 1012.5
20260901050412 79 191 2.0 5.0 0.00 0.00 0.00 86 1012.8
20260901045911 79 209 1.0 4.0 0.00 0.04 0.04 86 1012.5
20260901045406 79 201 0.0 4.0 0.00 0.04 0.04 85 1012.5
20260901044901 79 209 3.0 5.0 0.00 0.04 0.04 85 1012.5
20260901044357 79 206 2.0 5.0 0.00 0.04 0.04 85 1012.6
20260901043852 79 201 0.0 4.0 0.00 0.04 0.04 85 1012.5
20260901043348 80 203 3.0 5.0 0.00 0.04 0.04 84 1012.7
20260901042843 80 202 3.0 5.0 0.00 0.04 0.04 83 1012.7
20260901042337 80 209 3.0 4.0 0.00 0.04 0.04 83 1012.6
20260901041832 81 202 3.0 5.0 0.00 0.04 0.04 82 1012.5
20260901041327 81 190 3.0 5.0 0.00 0.04 0.04 81 1012.7
20260901040822 81 202 4.0 6.0 0.00 0.04 0.04 81 1012.7
20260901040321 81 200 3.0 3.0 0.00 0.04 0.04 81 1012.5
20260901035820 82 190 2.0 8.0 0.00 0.04 0.04 80 1012.5
20260901035320 82 195 3.0 6.0 0.00 0.04 0.04 80 1012.4
20260901034818 82 199 3.0 5.0 0.00 0.04 0.04 80 1012.3
20260901034314 81 208 5.0 9.0 0.00 0.04 0.04 81 1012.6
20260901033808 81 196 0.0 3.0 0.00 0.04 0.04 83 1012.5
20260901033307 81 195 2.0 3.0 0.00 0.04 0.04 82 1012.8
20260901032806 81 198 0.0 2.0 0.00 0.04 0.04 83 1012.6
20260901032306 81 195 0.0 3.0 0.00 0.04 0.04 83 1012.5
20260901031801 81 81 0.0 4.0 0.00 0.04 0.04 83 1012.6
20260901031257 81 187 2.0 4.0 0.00 0.04 0.04 83 1012.5
20260901030756 82 215 0.0 4.0 0.00 0.04 0.04 83 1012.6
20260901030257 81 200 3.0 5.0 0.00 0.04 0.04 83 1012.7
20260901025751 81 194 0.0 4.0 0.00 0.04 0.04 84 1012.4
20260901025246 82 204 2.0 5.0 0.00 0.04 0.04 84 1012.5
20260901024741 81 246 2.0 4.0 0.00 0.04 0.04 85 1012.4
20260901024239 81 111 0.0 4.0 0.00 0.04 0.04 85 1012.6
20260901023737 81 195 0.0 3.0 0.00 0.04 0.04 86 1012.8
20260901023233 81 209 1.0 2.0 0.00 0.04 0.04 86 1012.7
20260901022728 82 201 0.0 5.0 0.00 0.04 0.04 85 1012.8
20260901022224 81 234 1.0 3.0 0.00 0.04 0.04 85 1012.5
20260901021719 81 215 1.0 2.0 0.00 0.04 0.04 86 1012.7
20260901021214 81 203 0.0 3.0 0.00 0.04 0.04 86 1012.7
20260901020704 82 204 2.0 2.0 0.00 0.04 0.04 86 1012.8
20260901020159 82 195 0.0 3.0 0.00 0.04 0.04 85 1012.7
20260901015654 82 203 3.0 3.0 0.00 0.04 0.04 85 1012.7
20260901015154 82 29 1.0 3.0 0.00 0.04 0.04 85 1012.5
20260901014649 82 209 0.0 2.0 0.00 0.04 0.04 85 1012.7
20260901014145 82 201 0.0 2.0 0.00 0.04 0.04 84 1012.5
20260901013640 83 105 0.0 3.0 0.00 0.04 0.04 83 1012.4
20260901013136 82 90 0.0 3.0 0.00 0.04 0.04 84 1012.6
20260901012631 82 212 2.0 3.0 0.00 0.04 0.04 85 1012.4
20260901012126 82 254 0.0 3.0 0.00 0.04 0.04 86 1012.4
20260901011622 82 206 0.0 3.0 0.00 0.04 0.04 85 1012.4
20260901011120 83 200 1.0 3.0 0.00 0.04 0.04 85 1012.2
20260901010616 83 220 0.0 0.0 0.00 0.04 0.04 84 1012.4
20260901010115 83 206 2.0 4.0 0.00 0.04 0.04 84 1012.2
20260901005615 83 206 0.0 4.0 0.00 0.04 0.04 84 1011.9
20260901005110 83 194 0.0 5.0 0.00 0.04 0.04 85 1012.1
20260901004609 83 192 0.0 4.0 0.00 0.04 0.04 85 1012.1
20260901004104 83 198 3.0 4.0 0.00 0.04 0.04 85 1012.0
20260901003559 83 203 3.0 4.0 0.00 0.04 0.04 85 1012.2
20260901003057 84 210 2.0 3.0 0.00 0.04 0.04 85 1012.1
20260901002552 84 204 2.0 4.0 0.00 0.04 0.04 84 1012.2
20260901002047 84 278 0.0 1.0 0.00 0.04 0.04 83 1012.1
20260901001542 84 246 0.0 1.0 0.00 0.04 0.04 82 1012.2
20260901001037 85 254 0.0 2.0 0.02 0.04 0.04 81 1011.9
20260901000532 85 198 3.0 3.0 0.02 0.04 0.04 80 1012.0
20260901000028 86 70 2.0 3.0 0.00 0.04 0.04 77 1011.9
20260831235521 87 115 0.0 5.0 0.00 0.04 0.04 75 1011.9
20260831235017 87 199 3.0 3.0 0.00 0.04 0.04 75 1012.3
20260831234511 87 331 0.0 0.0 0.00 0.04 0.04 75 1012.7
20260831234007 88 331 0.0 1.0 0.00 0.04 0.04 74 1012.8
20260831233501 88 0 0.0 1.0 0.00 0.04 0.04 73 1012.8
20260831232957 88 261 0.0 2.0 0.00 0.04 0.04 72 1012.3
20260831232452 88 188 2.0 3.0 0.00 0.04 0.04 71 1012.2
20260831231948 88 195 0.0 2.0 0.00 0.04 0.04 72 1012.0
20260831231444 89 197 2.0 3.0 0.00 0.04 0.04 72 1012.2
20260831230940 89 194 0.0 3.0 0.00 0.04 0.04 72 1012.0
20260831230435 89 198 2.0 4.0 0.00 0.04 0.04 72 1012.0
20260831225928 89 186 0.0 3.0 0.00 0.04 0.04 72 1011.7
20260831225425 90 192 0.0 2.0 0.00 0.04 0.04 71 1011.6
20260831224920 89 199 2.0 3.0 0.00 0.04 0.04 70 1011.7
20260831224419 89 204 2.0 3.0 0.00 0.04 0.04 70 1011.8
20260831223914 90 206 1.0 3.0 0.00 0.04 0.04 69 1011.9
20260831223410 91 206 3.0 9.0 0.00 0.04 0.04 68 1011.7
20260831222907 91 194 3.0 4.0 0.00 0.04 0.04 67 1011.6
20260831222402 93 194 4.0 4.0 0.00 0.04 0.04 66 1011.6
20260831221857 94 189 2.0 4.0 0.00 0.04 0.04 65 1011.4
20260831221352 94 190 0.0 4.0 0.00 0.04 0.04 64 1011.6
20260831220848 94 197 2.0 5.0 0.00 0.04 0.04 65 1011.4
20260831220343 94 216 2.0 5.0 0.00 0.04 0.04 64 1011.6
20260831215838 95 209 0.0 4.0 0.00 0.04 0.04 63 1011.5
20260831215334 95 198 2.0 3.0 0.00 0.04 0.04 61 1011.5
20260831214830 95 261 3.0 6.0 0.00 0.04 0.04 60 1011.8
20260831214327 94 190 3.0 7.0 0.00 0.04 0.04 61 1011.7
20260831213822 95 186 1.0 3.0 0.00 0.04 0.04 60 1011.6
20260831213319 94 164 2.0 8.0 0.00 0.04 0.04 60 1011.5
20260831212814 95 254 2.0 8.0 0.00 0.04 0.04 60 1011.6
20260831212311 95 188 3.0 7.0 0.00 0.04 0.04 60 1011.8
20260831211809 95 211 0.0 6.0 0.00 0.04 0.04 59 1011.7
20260831211305 96 180 2.0 7.0 0.00 0.04 0.04 58 1011.6
20260831210804 96 189 5.0 6.0 0.00 0.04 0.04 58 1011.7
20260831210300 96 214 0.0 3.0 0.00 0.04 0.04 58 1011.7
20260831205800 96 103 0.0 6.0 0.00 0.04 0.04 58 1011.6
20260831205256 95 90 1.0 8.0 0.00 0.04 0.04 59 1011.8
20260831204755 95 4 0.0 5.0 0.00 0.04 0.04 58 1011.8
20260831204255 95 334 1.0 7.0 0.00 0.04 0.04 58 1011.7
20260831203754 95 195 5.0 9.0 0.00 0.04 0.04 57 1011.7
20260831203249 95 233 3.0 7.0 0.00 0.04 0.04 59 1011.9
20260831202747 95 194 5.0 5.0 0.00 0.04 0.04 58 1011.8
20260831202242 95 255 0.0 4.0 0.00 0.04 0.04 62 1011.8
20260831201737 94 199 2.0 8.0 0.00 0.04 0.04 62 1011.8
20260831201236 94 196 7.0 9.0 0.00 0.04 0.04 61 1011.7
20260831200732 94 196 3.0 7.0 0.00 0.04 0.04 61 1011.5
20260831200226 94 197 7.0 10.0 0.00 0.04 0.04 61 1011.5
20260831195722 94 192 5.0 10.0 0.00 0.04 0.04 60 1011.7
20260831195217 94 194 5.0 7.0 0.00 0.04 0.04 61 1011.7
20260831194712 94 190 5.0 7.0 0.00 0.04 0.04 62 1011.7
20260831194208 93 193 10.0 11.0 0.00 0.04 0.04 61 1011.7
20260831193701 93 192 7.0 11.0 0.00 0.04 0.04 61 1011.8
20260831193157 94 199 3.0 7.0 0.00 0.04 0.04 61 1011.9
20260831192652 93 246 1.0 8.0 0.00 0.04 0.04 62 1011.9
20260831192147 92 195 6.0 9.0 0.00 0.04 0.04 62 1011.9
20260831191643 92 192 4.0 12.0 0.00 0.04 0.04 60 1011.8
20260831191139 92 207 8.0 11.0 0.00 0.04 0.04 60 1011.7
20260831190634 91 184 5.0 10.0 0.00 0.04 0.04 61 1012.0
20260831190132 91 195 5.0 7.0 0.00 0.04 0.04 63 1011.8
20260831185628 91 199 6.0 13.0 0.00 0.04 0.04 62 1011.9
20260831185123 91 194 6.0 11.0 0.00 0.04 0.04 64 1011.9
20260831184618 91 199 7.0 12.0 0.00 0.04 0.04 61 1012.1
20260831184114 91 229 3.0 11.0 0.00 0.04 0.04 65 1012.0
20260831183613 91 206 3.0 8.0 0.00 0.04 0.04 63 1012.1
20260831183112 91 187 1.0 8.0 0.00 0.04 0.04 64 1012.1
20260831182611 90 198 6.0 10.0 0.00 0.04 0.04 63 1012.1
20260831182108 90 206 3.0 14.0 0.00 0.04 0.04 62 1012.0
20260831181607 90 196 7.0 11.0 0.00 0.04 0.04 63 1012.2
20260831181102 89 195 4.0 6.0 0.00 0.04 0.04 66 1012.2
20260831180557 89 172 0.0 8.0 0.00 0.04 0.04 67 1012.2
20260831180052 88 8 0.0 9.0 0.00 0.04 0.04 70 1012.2
20260831175547 87 194 4.0 8.0 0.00 0.04 0.04 69 1012.4
20260831175044 87 194 8.0 8.0 0.00 0.04 0.04 68 1012.6
20260831174538 86 196 7.0 17.0 0.00 0.04 0.04 68 1012.3
20260831174032 87 192 7.0 9.0 0.00 0.04 0.04 70 1012.6
20260831173531 86 135 2.0 10.0 0.00 0.04 0.04 73 1012.8
20260831173027 85 90 2.0 11.0 0.00 0.04 0.04 72 1013.0
20260831172522 85 203 5.0 6.0 0.00 0.04 0.04 73 1013.3
20260831172017 85 191 4.0 8.0 0.00 0.04 0.04 72 1013.3
20260831171513 84 40 0.0 9.0 0.00 0.04 0.04 75 1013.3
20260831171009 83 198 3.0 5.0 0.00 0.04 0.04 76 1013.5
20260831170505 82 198 5.0 6.0 0.00 0.04 0.04 77 1013.4
20260831170002 81 200 5.0 8.0 0.00 0.04 0.04 76 1013.6
20260831165457 81 204 5.0 5.0 0.00 0.04 0.04 77 1013.7
20260831164954 81 339 2.0 4.0 0.00 0.04 0.04 77 1013.6
20260831164449 81 212 2.0 5.0 0.00 0.04 0.04 77 1013.7
20260831163944 81 15 0.0 2.0 0.00 0.04 0.04 76 1013.9
20260831163440 80 194 3.0 5.0 0.00 0.04 0.04 76 1014.0
20260831162938 80 205 3.0 6.0 0.00 0.04 0.04 76 1013.8
20260831162434 80 192 5.0 5.0 0.00 0.04 0.04 76 1014.0
20260831161932 80 197 5.0 7.0 0.00 0.04 0.04 75 1013.9
20260831161429 81 204 2.0 2.0 0.00 0.04 0.04 76 1013.9
20260831160925 80 188 0.0 5.0 0.00 0.04 0.04 77 1013.8
20260831160419 80 194 6.0 6.0 0.00 0.04 0.04 76 1013.9
20260831155919 79 195 0.0 4.0 0.00 0.04 0.04 77 1013.9
20260831155419 79 57 3.0 4.0 0.00 0.04 0.04 76 1014.1
20260831154915 79 5 0.0 6.0 0.00 0.04 0.04 77 1014.1
20260831154411 79 180 0.0 2.0 0.00 0.04 0.04 77 1014.0
20260831153909 79 188 2.0 6.0 0.00 0.04 0.04 78 1014.0
20260831153405 78 191 4.0 7.0 0.00 0.04 0.04 76 1013.9
20260831152901 78 206 2.0 7.0 0.00 0.04 0.04 77 1013.9
20260831152357 78 57 2.0 6.0 0.00 0.04 0.04 75 1013.8
20260831151852 78 78 2.0 6.0 0.00 0.04 0.04 76 1013.7
20260831151350 77 201 2.0 4.0 0.00 0.04 0.04 79 1014.0
20260831150846 77 195 2.0 3.0 0.00 0.04 0.04 82 1014.0
20260831150342 77 20 1.0 3.0 0.00 0.04 0.04 83 1014.0
20260831145840 77 106 0.0 3.0 0.00 0.04 0.04 82 1014.2
20260831145337 77 199 0.0 2.0 0.00 0.04 0.04 79 1014.3
20260831144832 77 35 0.0 3.0 0.00 0.04 0.04 79 1014.0
20260831144328 77 206 0.0 6.0 0.00 0.04 0.04 79 1014.1
20260831143823 77 69 1.0 3.0 0.00 0.04 0.04 78 1014.2
20260831143318 76 74 0.0 3.0 0.00 0.04 0.04 78 1014.2
20260831142813 76 188 2.0 4.0 0.00 0.04 0.04 79 1014.1
20260831142308 76 191 0.0 2.0 0.00 0.04 0.04 79 1014.3
20260831141803 75 203 0.0 2.0 0.00 0.04 0.04 80 1014.0
20260831141257 75 109 0.0 4.0 0.00 0.04 0.04 80 1014.1
20260831140752 75 263 0.0 3.0 0.00 0.04 0.04 81 1014.2
20260831140246 75 203 2.0 3.0 0.00 0.04 0.04 81 1013.9
20260831135744 74 66 0.0 2.0 0.00 0.04 0.04 82 1014.2
20260831135240 74 194 1.0 1.0 0.00 0.04 0.04 83 1013.9
20260831134735 74 78 2.0 3.0 0.00 0.04 0.04 83 1013.9
20260831134232 74 74 0.0 2.0 0.00 0.04 0.04 84 1013.7
20260831133731 74 81 0.0 2.0 0.00 0.04 0.04 83 1014.1
20260831133225 73 79 2.0 2.0 0.00 0.04 0.04 83 1014.0
20260831132721 73 196 0.0 2.0 0.00 0.04 0.04 84 1014.0
20260831132220 73 203 0.0 5.0 0.00 0.04 0.04 84 1013.7
20260831131715 73 192 0.0 5.0 0.00 0.04 0.04 84 1013.6
20260831131212 73 251 2.0 7.0 0.00 0.04 0.04 85 1013.4
20260831130706 73 206 2.0 3.0 0.00 0.04 0.04 85 1013.4
20260831130202 73 192 1.0 5.0 0.00 0.04 0.04 85 1013.5
20260831125700 72 180 1.0 4.0 0.00 0.04 0.04 86 1013.5
20260831125156 72 203 1.0 5.0 0.00 0.04 0.04 85 1013.4
20260831124651 72 188 5.0 5.0 0.00 0.04 0.04 85 1013.3
20260831124148 72 189 4.0 6.0 0.00 0.04 0.04 86 1013.3
20260831123647 72 192 0.0 4.0 0.00 0.04 0.04 87 1013.4
20260831123146 72 197 3.0 5.0 0.00 0.04 0.04 86 1013.1
20260831122645 72 184 2.0 4.0 0.00 0.04 0.04 87 1013.3
20260831122142 72 194 4.0 5.0 0.00 0.04 0.04 87 1013.0
20260831121641 72 194 4.0 5.0 0.00 0.04 0.04 87 1013.1
20260831121138 72 196 2.0 5.0 0.00 0.04 0.04 87 1013.1
20260831120632 72 180 2.0 7.0 0.00 0.04 0.04 86 1013.1
20260831120122 71 199 2.0 5.0 0.00 0.04 0.04 87 1013.0
20260831115618 71 186 3.0 6.0 0.00 0.04 0.04 87 1013.2